Showing default

QIANFAN-199, 69417

Orbit data source: Space-Track

QIANFAN-199, 69417 is a Chinese payload satellite in LEO that was launched on Fri, 05 Jun 2026 UTC via a CHANG ZHENG 8 launch vehicle from the Wenchang Satellite Launch Center (WSC). Payload-class satellites include a variety of spacecraft equipped with specific instruments for various scientific and technological missions. These include communications satellites like Starlink; space stations such as the ISS; scientific satellites like the Hubble; Earth observation satellites from companies like Planet Labs, Umbra, and HawkEye 360; GPS; miniature CubeSats for education and research; and military/defense satellites.

Loading next visibility...
Identifier
69417, 2026-125S
Orbit
LEO
Country
Flag of CNCN / PRC
Related business
Manufacturer
SECM?
Mission
Operational spacecraft
Bus & Motor
QIANFAN, Unknown motor
Mass
267 kg wet, ~267 kg dry
Launch date (UTC)
2026-06-05 (2 weeks ago)
Launch vehicle
CHANG ZHENG 8
Launch site
Wenchang Satellite Launch Center (WSC)
Object type
Payload
Rocket body
Debris
Shape & HBR
Unknown
Radar Cross Section
Large (>1 m²)

Expand to show TLE details & history
Last TLE update: 1 day ago

TLE from 1 day ago
0 QIANFAN-199
1 69417U 26125S   26170.77152315 -.01926055  00000-0 -97995+0 0  9998
2 69417  88.9945 280.1474 0014695 175.6046 184.5276 14.19732489  2072
Epoch: 2026-06-19T18:30Z
TLE epoch observation values (Epoch: 2026-06-19T18:30:59.600Z)
Latitude
0.00002°
Longitude
94.40335°
Altitude
839.866 km
Speed
7.427 km/s
True Right ascension
18h 40m 35s
True Declination
0° 00' 00"
Sunlit
Object was in full shadow at epoch
Visualization orbit readout
Latitude
Unknown
Longitude
Unknown
Altitude
Unknown
Speed
Unknown
Apparent Right ascension
Unknown
Apparent Declination
Unknown
Sunlit
N/A
Visualization observer readout
Local Sidereal Time
07:12:09
Azimuth
Unknown
Elevation
Unknown
Doppler factor
Unknown
Orbital elements
Apogee altitude
833.792 km
Perigee altitude
812.627 km
Semi-major axis
7,201.346 km
Eccentricity
0.00147
Inclination
88.9945°
RAAN
280.1474°
Arg. of periapsis
175.6046°
True anomaly
184.51433°
Mean anomaly
184.5276°
Eccentric anomaly
184.52096°
Mean motion
3.55159 °/min
Orbital period
101.36 mins
BSTAR
-0.97995
Loading maneuver chart data...
Computing Atmospheric mass density...
Loading historical data...
Loading historical data...
Loading historical data...
Loading historical data...
Loading historical data...
Loading historical data...
Loading historical data...

Documentation

Showing up to 5 results
|